Location: Karcze
(52.0945°N, 22.4786°E)
Time: 22:49:28
(UTC+00:00)

Transit 4A - Pass Details

Date: 30 July 2021
Orbit: 871 x 974 km, 66.8° (Epoch: 18 September)

Event Time Altitude Azimuth Distance (km) Brightness Sun altitude
Exits shadow 22:29:38 34° 158° (SSE) 1,406 8.3 -19.6°
Maximum altitude 22:31:24 43° 117° (ESE) 1,205 8.3 -19.6°
Drops below altitude 10° 22:36:52 10° 47° (NE) 2,528 10.7 -19.6°
Sets 22:39:27 0° 42° (NE) 3,470 11.7 -19.6°
